Time,TemperatureF,DewpointF,PressureIn,WindDirection,WindDirectionDegrees,WindSpeedMPH,WindSpeedGustMPH,Humidity,HourlyPrecipIn,Conditions,Clouds,dailyrainin,SoftwareType,DateUTC
2013-06-03 00:03:00,53.0,48.0,30.04,NE,39,2.0,9.0,83,0.00,,,0.09,,2013-06-03 04:03:00,
2013-06-03 00:12:00,53.0,48.0,30.04,NE,39,2.0,9.0,83,0.00,,,0.09,,2013-06-03 04:12:00,
2013-06-03 00:23:00,53.0,48.0,30.04,NNE,26,4.0,6.0,82,0.00,,,0.01,,2013-06-03 04:23:00,
2013-06-03 00:33:00,53.0,47.0,30.04,NE,36,3.0,8.0,81,0.00,,,0.01,,2013-06-03 04:33:00,
2013-06-03 00:42:00,53.0,47.0,30.04,NE,36,3.0,8.0,81,0.00,,,0.01,,2013-06-03 04:42:00,
2013-06-03 00:53:00,53.0,47.0,30.04,NNE,33,4.0,8.0,80,0.00,,,0.01,,2013-06-03 04:53:00,
2013-06-03 01:02:00,53.0,47.0,30.04,ENE,61,2.0,6.0,81,0.00,,,0.01,,2013-06-03 05:02:00,
2013-06-03 01:12:00,53.0,47.0,30.04,NNE,30,3.0,5.0,79,0.00,,,0.01,,2013-06-03 05:12:00,
2013-06-03 01:22:00,53.0,47.0,30.04,NNE,30,3.0,5.0,79,0.00,,,0.01,,2013-06-03 05:22:00,
2013-06-03 01:32:00,53.0,46.0,30.04,NNE,26,5.0,9.0,77,0.00,,,0.01,,2013-06-03 05:32:00,
2013-06-03 01:42:00,53.0,46.0,30.04,NNE,26,5.0,9.0,77,0.00,,,0.01,,2013-06-03 05:42:00,
2013-06-03 01:52:00,53.0,46.0,30.04,NNE,29,5.0,8.0,77,0.00,,,0.01,,2013-06-03 05:52:00,
2013-06-03 02:02:00,53.0,46.0,30.04,NNE,16,4.0,8.0,77,0.00,,,0.01,,2013-06-03 06:02:00,
2013-06-03 02:12:00,53.0,46.0,30.04,NNE,16,4.0,8.0,77,0.00,,,0.01,,2013-06-03 06:12:00,
2013-06-03 02:22:00,53.0,46.0,30.05,NNE,30,3.0,7.0,76,0.00,,,0.00,,2013-06-03 06:22:00,
2013-06-03 02:32:00,53.0,46.0,30.05,NNE,27,3.0,8.0,76,0.00,,,0.00,,2013-06-03 06:32:00,
2013-06-03 02:42:00,53.0,46.0,30.05,NNE,27,3.0,8.0,76,0.00,,,0.00,,2013-06-03 06:42:00,
2013-06-03 02:52:00,52.0,45.0,30.04,NNE,20,4.0,6.0,76,0.00,,,0.00,,2013-06-03 06:52:00,
2013-06-03 03:02:00,52.0,45.0,30.04,NNE,27,4.0,7.0,77,0.00,,,0.00,,2013-06-03 07:02:00,
2013-06-03 03:12:00,52.0,45.0,30.04,NNE,27,4.0,7.0,77,0.00,,,0.00,,2013-06-03 07:12:00,
2013-06-03 03:22:00,51.0,44.0,30.03,North,352,3.0,6.0,77,0.00,,,0.00,,2013-06-03 07:22:00,
2013-06-03 03:32:00,51.0,44.0,30.03,NNE,29,3.0,7.0,78,0.00,,,0.00,,2013-06-03 07:32:00,
2013-06-03 03:42:00,51.0,44.0,30.03,NNE,29,3.0,7.0,78,0.00,,,0.00,,2013-06-03 07:42:00,
2013-06-03 03:52:00,50.0,44.0,30.03,NE,41,4.0,7.0,81,0.00,,,0.00,,2013-06-03 07:52:00,
2013-06-03 04:02:00,49.0,44.0,30.03,NNE,25,3.0,5.0,82,0.00,,,0.00,,2013-06-03 08:02:00,
2013-06-03 04:12:00,49.0,44.0,30.03,NNE,25,3.0,5.0,82,0.00,,,0.00,,2013-06-03 08:12:00,
2013-06-03 04:22:00,49.0,44.0,30.03,NE,37,3.0,4.0,83,0.00,,,0.00,,2013-06-03 08:22:00,
2013-06-03 04:32:00,49.0,44.0,30.03,NNE,25,3.0,5.0,82,0.00,,,0.00,,2013-06-03 08:32:00,
2013-06-03 04:42:00,49.0,44.0,30.03,NNE,25,3.0,5.0,82,0.00,,,0.00,,2013-06-03 08:42:00,
2013-06-03 04:52:00,48.0,43.0,30.03,NNE,27,1.0,4.0,83,0.00,,,0.00,,2013-06-03 08:52:00,
2013-06-03 05:02:00,48.0,43.0,30.03,NNE,30,2.0,3.0,83,0.00,,,0.00,,2013-06-03 09:02:00,
2013-06-03 05:12:00,48.0,43.0,30.03,NNE,30,2.0,3.0,83,0.00,,,0.00,,2013-06-03 09:12:00,
2013-06-03 05:22:00,48.0,43.0,30.03,NNE,16,4.0,7.0,84,0.00,,,0.00,,2013-06-03 09:22:00,
2013-06-03 05:33:00,47.0,42.0,30.03,NE,38,1.0,5.0,84,0.00,,,0.00,,2013-06-03 09:33:00,
2013-06-03 05:42:00,47.0,42.0,30.03,NE,38,1.0,5.0,84,0.00,,,0.00,,2013-06-03 09:42:00,
2013-06-03 05:53:00,47.0,42.0,30.03,NE,43,2.0,6.0,84,0.00,,,0.00,,2013-06-03 09:53:00,
2013-06-03 06:03:00,47.0,42.0,30.04,NE,56,4.0,7.0,84,0.00,,,0.00,,2013-06-03 10:03:00,
2013-06-03 06:12:00,47.0,43.0,30.04,ENE,62,0.0,2.0,85,0.00,,,0.00,,2013-06-03 10:12:00,
2013-06-03 06:22:00,47.0,43.0,30.04,ENE,62,0.0,2.0,85,0.00,,,0.00,,2013-06-03 10:22:00,
2013-06-03 06:33:00,46.0,42.0,30.05,ENE,61,0.0,1.0,86,0.00,,,0.00,,2013-06-03 10:33:00,
2013-06-03 06:42:00,46.0,42.0,30.05,ENE,61,0.0,1.0,86,0.00,,,0.00,,2013-06-03 10:42:00,
2013-06-03 07:52:00,48.0,43.0,30.08,NE,36,5.0,9.0,84,0.00,,,0.00,,2013-06-03 11:52:00,
2013-06-03 08:02:00,49.0,44.0,30.08,NNE,13,4.0,9.0,84,0.00,,,0.00,,2013-06-03 12:02:00,
2013-06-03 08:12:00,49.0,44.0,30.08,NNE,13,4.0,9.0,84,0.00,,,0.00,,2013-06-03 12:12:00,
2013-06-03 08:22:00,50.0,45.0,30.08,NE,38,5.0,8.0,82,0.00,,,0.00,,2013-06-03 12:22:00,
2013-06-03 08:32:00,50.0,45.0,30.08,NNE,26,4.0,9.0,82,0.00,,,0.00,,2013-06-03 12:32:00,
2013-06-03 08:42:00,50.0,45.0,30.08,NNE,26,4.0,9.0,82,0.00,,,0.00,,2013-06-03 12:42:00,
2013-06-03 08:52:00,51.0,45.0,30.09,ENE,60,5.0,8.0,80,0.00,,,0.00,,2013-06-03 12:52:00,
2013-06-03 09:02:00,51.0,45.0,30.09,NNE,27,4.0,5.0,80,0.00,,,0.00,,2013-06-03 13:02:00,
2013-06-03 09:12:00,51.0,45.0,30.09,NNE,27,4.0,5.0,80,0.00,,,0.00,,2013-06-03 13:12:00,
2013-06-03 09:22:00,52.0,46.0,30.09,North,1,4.0,8.0,80,0.00,,,0.00,,2013-06-03 13:22:00,
2013-06-03 09:32:00,53.0,46.0,30.09,NE,52,5.0,7.0,78,0.00,,,0.00,,2013-06-03 13:32:00,
2013-06-03 09:42:00,53.0,46.0,30.09,NE,52,5.0,7.0,78,0.00,,,0.00,,2013-06-03 13:42:00,
2013-06-03 09:53:00,54.0,47.0,30.09,North,8,5.0,7.0,78,0.00,,,0.00,,2013-06-03 13:53:00,
2013-06-03 10:02:00,54.0,47.0,30.10,NNE,15,6.0,9.0,77,0.00,,,0.00,,2013-06-03 14:02:00,
2013-06-03 10:12:00,54.0,47.0,30.10,NNE,15,6.0,9.0,77,0.00,,,0.00,,2013-06-03 14:12:00,
2013-06-03 10:22:00,55.0,48.0,30.11,NE,48,3.0,7.0,76,0.00,,,0.00,,2013-06-03 14:22:00,
2013-06-03 10:32:00,56.0,49.0,30.11,NNE,15,3.0,6.0,76,0.00,,,0.00,,2013-06-03 14:32:00,
2013-06-03 10:42:00,56.0,49.0,30.11,NNE,15,3.0,6.0,76,0.00,,,0.00,,2013-06-03 14:42:00,
2013-06-03 10:52:00,56.0,48.0,30.11,WNW,285,0.0,4.0,75,0.00,,,0.00,,2013-06-03 14:52:00,
2013-06-03 11:02:00,56.0,48.0,30.11,NNW,335,1.0,7.0,75,0.00,,,0.00,,2013-06-03 15:02:00,
2013-06-03 11:12:00,56.0,48.0,30.11,NNW,335,1.0,7.0,75,0.00,,,0.00,,2013-06-03 15:12:00,
2013-06-03 11:22:00,58.0,49.0,30.11,NE,37,1.0,3.0,73,0.00,,,0.00,,2013-06-03 15:22:00,
2013-06-03 11:33:00,58.0,48.0,30.11,SSW,193,1.0,4.0,70,0.00,,,0.00,,2013-06-03 15:33:00,
2013-06-03 11:43:00,58.0,48.0,30.11,SSW,193,1.0,4.0,70,0.00,,,0.00,,2013-06-03 15:43:00,
2013-06-03 11:53:00,59.0,47.0,30.11,NNE,15,5.0,6.0,65,0.00,,,0.00,,2013-06-03 15:53:00,
2013-06-03 12:03:00,59.0,48.0,30.11,North,8,3.0,4.0,66,0.00,,,0.00,,2013-06-03 16:03:00,
2013-06-03 12:13:00,58.0,47.0,30.11,NE,36,2.0,5.0,66,0.00,,,0.00,,2013-06-03 16:13:00,
2013-06-03 12:23:00,58.0,47.0,30.11,NE,36,2.0,5.0,66,0.00,,,0.00,,2013-06-03 16:23:00,
2013-06-03 12:33:00,60.0,48.0,30.11,East,98,3.0,5.0,65,0.00,,,0.00,,2013-06-03 16:33:00,
2013-06-03 12:42:00,60.0,47.0,30.10,ENE,63,4.0,8.0,63,0.00,,,0.00,,2013-06-03 16:42:00,
2013-06-03 12:53:00,60.0,47.0,30.10,ENE,63,4.0,8.0,63,0.00,,,0.00,,2013-06-03 16:53:00,
2013-06-03 13:02:00,61.0,49.0,30.10,NE,40,4.0,7.0,65,0.00,,,0.00,,2013-06-03 17:02:00,
2013-06-03 13:12:00,61.0,49.0,30.10,NE,40,4.0,7.0,65,0.00,,,0.00,,2013-06-03 17:12:00,
2013-06-03 13:22:00,62.0,48.0,30.08,ENE,60,3.0,6.0,60,0.00,,,0.00,,2013-06-03 17:22:00,
2013-06-03 13:33:00,62.0,48.0,30.08,ESE,103,4.0,9.0,60,0.00,,,0.00,,2013-06-03 17:33:00,
2013-06-03 13:42:00,63.0,47.0,30.08,ENE,63,2.0,8.0,56,0.00,,,0.00,,2013-06-03 17:42:00,
2013-06-03 13:52:00,63.0,47.0,30.08,ENE,63,2.0,8.0,56,0.00,,,0.00,,2013-06-03 17:52:00,
2013-06-03 14:02:00,63.0,48.0,30.08,East,79,3.0,12.0,57,0.00,,,0.00,,2013-06-03 18:02:00,
2013-06-03 14:12:00,63.0,47.0,30.07,NE,54,4.0,10.0,56,0.00,,,0.00,,2013-06-03 18:12:00,
2013-06-03 14:22:00,63.0,47.0,30.07,NE,54,4.0,10.0,56,0.00,,,0.00,,2013-06-03 18:22:00,
2013-06-03 14:32:00,63.0,48.0,30.07,ENE,65,4.0,8.0,57,0.00,,,0.00,,2013-06-03 18:32:00,
2013-06-03 14:42:00,63.0,48.0,30.07,ENE,65,4.0,8.0,57,0.00,,,0.00,,2013-06-03 18:42:00,
2013-06-03 14:52:00,64.0,47.0,30.06,ENE,59,3.0,10.0,54,0.00,,,0.00,,2013-06-03 18:52:00,
2013-06-03 15:03:00,64.0,47.0,30.06,ENE,58,3.0,8.0,54,0.00,,,0.00,,2013-06-03 19:03:00,
2013-06-03 15:12:00,64.0,47.0,30.06,ENE,58,3.0,8.0,54,0.00,,,0.00,,2013-06-03 19:12:00,
2013-06-03 15:22:00,65.0,49.0,30.05,ESE,109,2.0,7.0,57,0.00,,,0.00,,2013-06-03 19:22:00,
2013-06-03 15:32:00,65.0,46.0,30.05,ESE,103,4.0,6.0,51,0.00,,,0.00,,2013-06-03 19:32:00,
2013-06-03 15:42:00,65.0,46.0,30.05,ESE,103,4.0,6.0,51,0.00,,,0.00,,2013-06-03 19:42:00,
2013-06-03 15:52:00,65.0,47.0,30.05,NNE,18,6.0,9.0,53,0.00,,,0.00,,2013-06-03 19:52:00,
2013-06-03 16:02:00,65.0,48.0,30.05,ENE,65,3.0,4.0,54,0.00,,,0.00,,2013-06-03 20:02:00,
2013-06-03 16:12:00,65.0,48.0,30.05,ENE,65,3.0,4.0,54,0.00,,,0.00,,2013-06-03 20:12:00,
2013-06-03 16:22:00,66.0,48.0,30.05,SSE,157,1.0,5.0,52,0.00,,,0.00,,2013-06-03 20:22:00,
2013-06-03 16:32:00,67.0,49.0,30.04,ENE,71,4.0,8.0,52,0.00,,,0.00,,2013-06-03 20:32:00,
2013-06-03 16:42:00,67.0,49.0,30.04,ENE,71,4.0,8.0,52,0.00,,,0.00,,2013-06-03 20:42:00,
2013-06-03 16:52:00,66.0,42.0,30.04,East,98,5.0,9.0,42,0.00,,,0.00,,2013-06-03 20:52:00,
2013-06-03 17:02:00,66.0,42.0,30.04,NNE,20,5.0,8.0,42,0.00,,,0.00,,2013-06-03 21:02:00,
2013-06-03 17:12:00,67.0,44.0,30.04,NE,48,3.0,8.0,43,0.00,,,0.00,,2013-06-03 21:12:00,
2013-06-03 17:22:00,67.0,44.0,30.04,NE,48,3.0,8.0,43,0.00,,,0.00,,2013-06-03 21:22:00,
2013-06-03 17:33:00,67.0,43.0,30.04,North,354,5.0,9.0,41,0.00,,,0.00,,2013-06-03 21:33:00,
2013-06-03 17:43:00,67.0,43.0,30.04,North,354,5.0,9.0,41,0.00,,,0.00,,2013-06-03 21:43:00,
2013-06-03 17:53:00,67.0,44.0,30.03,NE,44,5.0,8.0,43,0.00,,,0.00,,2013-06-03 21:53:00,
2013-06-03 18:03:00,67.0,44.0,30.03,NNE,13,3.0,9.0,44,0.00,,,0.00,,2013-06-03 22:03:00,
2013-06-03 18:12:00,67.0,44.0,30.03,NNE,13,3.0,9.0,44,0.00,,,0.00,,2013-06-03 22:12:00,
2013-06-03 18:22:00,67.0,46.0,30.03,North,6,5.0,9.0,46,0.00,,,0.00,,2013-06-03 22:22:00,
2013-06-03 18:32:00,68.0,46.0,30.03,NE,37,2.0,6.0,46,0.00,,,0.00,,2013-06-03 22:32:00,
2013-06-03 18:42:00,68.0,46.0,30.03,NE,37,2.0,6.0,46,0.00,,,0.00,,2013-06-03 22:42:00,
2013-06-03 18:53:00,68.0,45.0,30.03,NE,37,4.0,7.0,43,0.00,,,0.00,,2013-06-03 22:53:00,
2013-06-03 19:02:00,68.0,48.0,30.03,NE,43,2.0,9.0,48,0.00,,,0.00,,2013-06-03 23:02:00,
2013-06-03 19:12:00,68.0,48.0,30.03,NE,43,2.0,9.0,48,0.00,,,0.00,,2013-06-03 23:12:00,
2013-06-03 19:22:00,68.0,46.0,30.03,East,79,4.0,7.0,46,0.00,,,0.00,,2013-06-03 23:22:00,
2013-06-03 19:32:00,67.0,47.0,30.03,NE,56,2.0,7.0,48,0.00,,,0.00,,2013-06-03 23:32:00,
2013-06-03 19:42:00,67.0,47.0,30.03,NE,56,2.0,7.0,48,0.00,,,0.00,,2013-06-03 23:42:00,
2013-06-03 19:52:00,67.0,46.0,30.04,North,9,6.0,9.0,47,0.00,,,0.00,,2013-06-03 23:52:00,
2013-06-03 20:02:00,67.0,47.0,30.04,NE,34,5.0,8.0,48,0.00,,,0.00,,2013-06-04 00:02:00,
2013-06-03 20:12:00,67.0,47.0,30.04,NE,34,5.0,8.0,48,0.00,,,0.00,,2013-06-04 00:12:00,
2013-06-03 20:22:00,67.0,47.0,30.05,ENE,74,3.0,7.0,48,0.00,,,0.00,,2013-06-04 00:22:00,
2013-06-03 20:32:00,66.0,46.0,30.05,NNE,30,4.0,7.0,49,0.00,,,0.00,,2013-06-04 00:32:00,
2013-06-03 20:42:00,66.0,46.0,30.05,NNE,30,4.0,7.0,49,0.00,,,0.00,,2013-06-04 00:42:00,
2013-06-03 20:52:00,66.0,47.0,30.05,NE,48,3.0,7.0,50,0.00,,,0.00,,2013-06-04 00:52:00,
2013-06-03 21:02:00,65.0,46.0,30.05,ENE,77,2.0,6.0,51,0.00,,,0.00,,2013-06-04 01:02:00,
2013-06-03 21:12:00,65.0,46.0,30.05,ENE,77,2.0,6.0,51,0.00,,,0.00,,2013-06-04 01:12:00,
2013-06-03 21:22:00,64.0,47.0,30.06,ENE,72,2.0,3.0,54,0.00,,,0.00,,2013-06-04 01:22:00,
2013-06-03 21:32:00,63.0,47.0,30.06,NE,56,1.0,2.0,56,0.00,,,0.00,,2013-06-04 01:32:00,
2013-06-03 21:42:00,63.0,47.0,30.06,NE,56,1.0,2.0,56,0.00,,,0.00,,2013-06-04 01:42:00,
2013-06-03 21:52:00,62.0,47.0,30.06,ENE,60,1.0,3.0,57,0.00,,,0.00,,2013-06-04 01:52:00,
2013-06-03 22:02:00,62.0,47.0,30.07,NE,44,0.0,2.0,59,0.00,,,0.00,,2013-06-04 02:02:00,
2013-06-03 22:12:00,62.0,47.0,30.07,NE,44,0.0,2.0,59,0.00,,,0.00,,2013-06-04 02:12:00,
2013-06-03 22:22:00,60.0,48.0,30.07,NE,44,0.0,1.0,64,0.00,,,0.00,,2013-06-04 02:22:00,
2013-06-03 22:32:00,59.0,47.0,30.08,NE,44,0.0,1.0,65,0.00,,,0.00,,2013-06-04 02:32:00,
2013-06-03 22:42:00,59.0,47.0,30.08,NE,44,0.0,1.0,65,0.00,,,0.00,,2013-06-04 02:42:00,
2013-06-03 22:52:00,58.0,47.0,30.09,NE,44,0.0,0.0,68,0.00,,,0.00,,2013-06-04 02:52:00,
2013-06-03 23:02:00,57.0,48.0,30.09,NE,44,0.0,0.0,71,0.00,,,0.00,,2013-06-04 03:02:00,
2013-06-03 23:12:00,57.0,48.0,30.09,NE,44,0.0,0.0,71,0.00,,,0.00,,2013-06-04 03:12:00,
2013-06-03 23:22:00,55.0,48.0,30.09,NE,44,0.0,0.0,76,0.00,,,0.00,,2013-06-04 03:22:00,
2013-06-03 23:32:00,55.0,48.0,30.09,NE,44,0.0,0.0,76,0.00,,,0.00,,2013-06-04 03:32:00,
2013-06-03 23:43:00,55.0,48.0,30.09,NE,44,0.0,0.0,76,0.00,,,0.00,,2013-06-04 03:43:00,
2013-06-03 23:53:00,55.0,47.0,30.09,NE,44,0.0,0.0,75,0.00,,,0.00,,2013-06-04 03:53:00,